Weather History for Canadian, TX

Change the Weather History Date:

Monday, November 19, 2012

  Actual Average (KPPA) Record (KPPA)
Temperature  
Mean Temperature 54 °F -  
Max Temperature 73 °F 58 °F 75 °F (1976)
Min Temperature 35 °F 33 °F 19 °F (1969)
Degree Days  
Heating Degree Days 11    
Growing Degree Days 4 (Base 50)    
Moisture  
Dew Point 38 °F    
Average Humidity 65    
Maximum Humidity 100    
Minimum Humidity 23    
Precipitation  
Precipitation 0.00 in - - ()
Sea Level Pressure  
Sea Level Pressure 30.11 in    
Wind  
Wind Speed 3 mph (ESE)    
Max Wind Speed 8 mph    
Max Gust Speed -    
Visibility 8 miles    
Events Fog    
Averages and records for this station are not official NWS values.
T = Trace of Precipitation, MM = Missing Value Source: NWS Daily Summary

Daily Weather History Graph

Daily Weather History Graph

Search for Another Location

Airport:

Trip Planner

Search our weather history database for the weather conditions in past years. The results will help you decide how hot, cold, wet, or windy it might be!

Date:

Astronomy

Nov. 19, 2012 Rise Set
Actual Time 7:22 AM CST 5:31 PM CST
Civil Twilight 6:54 AM CST 5:59 PM CST
Nautical Twilight 6:23 AM CST 6:30 PM CST
Astronomical Twilight 5:53 AM CST 7:00 PM CST
Moon 12:30 PM CST (11/19) 11:55 PM CST (11/19)
Length of Visible Light 11h 04m
Length of Day
10h 09m
Waxing Crescent, 41% of the Moon is Illuminated
Nov 19
Waxing Crescent
Nov 20
First Quarter
Nov 28
Full
Dec 6
Last Quarter
Dec 13
New

Hourly Weather History & Observations

Time (CST) Temp. Windchill Dew Point Humidity Pressure Visibility Wind Dir Wind Speed Gust Speed Precip Events Conditions
12:15 AM 51.8 °F - 50.0 °F 94% 30.06 in 10.0 mi SSW 5.8 mph - N/A   Clear
12:35 AM 51.8 °F - 50.0 °F 94% 30.06 in 10.0 mi SSW 6.9 mph - N/A   Clear
12:55 AM 51.8 °F - 50.0 °F 94% 30.06 in 10.0 mi SW 6.9 mph - N/A   Clear
1:15 AM 50.0 °F - 46.4 °F 87% 30.06 in 10.0 mi WSW 3.5 mph - N/A   Clear
1:35 AM 50.0 °F - 48.2 °F 94% 30.05 in 10.0 mi Calm Calm - N/A   Clear
1:55 AM 50.0 °F - 48.2 °F 94% 30.06 in 10.0 mi Calm Calm - N/A   Clear
2:15 AM 48.2 °F - 46.4 °F 93% 30.05 in 10.0 mi SSW 4.6 mph - N/A   Clear
2:35 AM 44.6 °F - 44.6 °F 100% 30.05 in 7.0 mi Calm Calm - N/A   Clear
2:55 AM 46.4 °F - 46.4 °F 100% 30.05 in 7.0 mi Calm Calm - N/A   Clear
3:15 AM 46.4 °F - 44.6 °F 93% 30.06 in 5.0 mi Calm Calm - N/A   Clear
3:35 AM 46.4 °F - 44.6 °F 93% 30.05 in 10.0 mi Calm Calm - N/A   Clear
3:55 AM 42.8 °F - 41.0 °F 93% 30.05 in 1.5 mi Calm Calm - N/A   Mist
4:15 AM 44.6 °F - 42.8 °F 93% 30.05 in 2.0 mi Calm Calm - N/A   Clear
4:35 AM 44.6 °F - 42.8 °F 93% 30.04 in 0.5 mi Calm Calm - N/A Fog Fog
4:55 AM 42.8 °F - 41.0 °F 93% 30.05 in 0.2 mi Calm Calm - N/A Fog Fog
5:15 AM 42.8 °F - 42.8 °F 100% 30.05 in 0.5 mi Calm Calm - N/A Fog Fog
5:35 AM 37.4 °F - 37.4 °F 100% 30.06 in 0.5 mi Calm Calm - N/A Fog Fog
5:55 AM 37.4 °F - 35.6 °F 93% 30.07 in 0.2 mi Calm Calm - N/A Fog Fog
6:15 AM 39.2 °F - 37.4 °F 93% 30.09 in 0.5 mi Calm Calm - N/A Fog Fog
6:35 AM 37.4 °F - 35.6 °F 93% 30.09 in 0.8 mi Calm Calm - N/A   Mist
6:55 AM 37.4 °F 34.9 °F 35.6 °F 93% 30.09 in 0.8 mi SW 3.5 mph - N/A   Mist
7:35 AM 39.2 °F - 39.2 °F 100% 30.10 in 2.0 mi Calm Calm - N/A   Clear
7:55 AM 35.6 °F - 35.6 °F 100% 30.11 in 0.8 mi Calm Calm - N/A   Mist
8:15 AM 35.6 °F - 35.6 °F 100% 30.12 in 2.0 mi Calm Calm - N/A   Scattered Clouds
8:35 AM 37.4 °F - 37.4 °F 100% 30.12 in 7.0 mi Calm Calm - N/A   Clear
8:55 AM 41.0 °F - 41.0 °F 100% 30.12 in 10.0 mi Calm Calm - N/A   Clear
9:15 AM 44.6 °F 40.2 °F 44.6 °F 100% 30.13 in 10.0 mi NW 8.1 mph - N/A   Clear
9:35 AM 50.0 °F - 39.2 °F 66% 30.13 in 10.0 mi WNW 6.9 mph - N/A   Clear
9:55 AM 51.8 °F - 35.6 °F 54% 30.12 in 10.0 mi NNW 5.8 mph - N/A   Clear
10:15 AM 51.8 °F - 35.6 °F 54% 30.13 in 10.0 mi NW 3.5 mph - N/A   Clear
10:35 AM 53.6 °F - 35.6 °F 51% 30.13 in 10.0 mi NW 3.5 mph - N/A   Clear
10:55 AM 55.4 °F - 35.6 °F 47% 30.14 in 10.0 mi Calm Calm - N/A   Clear
11:15 AM 57.2 °F - 35.6 °F 44% 30.13 in 10.0 mi NNW 3.5 mph - N/A   Clear
11:35 AM 60.8 °F - 37.4 °F 42% 30.13 in 10.0 mi Calm Calm - N/A   Clear
11:55 AM 62.6 °F - 35.6 °F 37% 30.13 in 10.0 mi Calm Calm - N/A   Clear
12:15 PM 64.4 °F - 35.6 °F 34% 30.12 in 10.0 mi Calm Calm - N/A   Clear
12:35 PM 66.2 °F - 35.6 °F 32% 30.12 in 10.0 mi ENE 3.5 mph - N/A   Clear
12:55 PM 69.8 °F - 35.6 °F 28% 30.11 in 10.0 mi NE 5.8 mph - N/A   Clear
1:15 PM 69.8 °F - 35.6 °F 28% 30.10 in 10.0 mi NE 4.6 mph - N/A   Clear
1:35 PM 69.8 °F - 35.6 °F 28% 30.10 in 10.0 mi Calm Calm - N/A   Clear
1:55 PM 71.6 °F - 35.6 °F 27% 30.09 in 10.0 mi ENE 3.5 mph - N/A   Clear
2:15 PM 71.6 °F - 35.6 °F 27% 30.09 in 10.0 mi SE 4.6 mph - N/A   Clear
2:35 PM 71.6 °F - 35.6 °F 27% 30.08 in 10.0 mi Calm Calm - N/A   Clear
2:55 PM 73.4 °F - 33.8 °F 23% 30.08 in 10.0 mi East 5.8 mph - N/A   Clear
3:15 PM 73.4 °F - 33.8 °F 23% 30.08 in 10.0 mi Calm Calm - N/A   Clear
3:35 PM 73.4 °F - 33.8 °F 23% 30.08 in 10.0 mi East 4.6 mph - N/A   Clear
3:55 PM 73.4 °F - 33.8 °F 23% 30.09 in 10.0 mi ESE 3.5 mph - N/A   Clear
4:15 PM 73.4 °F - 33.8 °F 23% 30.09 in 10.0 mi Calm Calm - N/A   Clear
4:35 PM 73.4 °F - 33.8 °F 23% 30.09 in 10.0 mi ENE 5.8 mph - N/A   Clear
4:55 PM 71.6 °F - 37.4 °F 29% 30.10 in 10.0 mi East 8.1 mph - N/A   Clear
5:15 PM 68.0 °F - 37.4 °F 33% 30.10 in 10.0 mi East 4.6 mph - N/A   Clear
5:35 PM 66.2 °F - 37.4 °F 35% 30.11 in 10.0 mi East 4.6 mph - N/A   Clear
5:55 PM 62.6 °F - 37.4 °F 39% 30.12 in 10.0 mi ENE 4.6 mph - N/A   Clear
6:15 PM 62.6 °F - 37.4 °F 39% 30.14 in 10.0 mi ENE 4.6 mph - N/A   Clear
6:35 PM 60.8 °F - 37.4 °F 42% 30.14 in 10.0 mi East 5.8 mph - N/A   Clear
6:55 PM 59.0 °F - 37.4 °F 45% 30.16 in 10.0 mi East 4.6 mph - N/A   Clear
7:15 PM 53.6 °F - 37.4 °F 54% 30.16 in 10.0 mi Calm Calm - N/A   Clear
7:35 PM 57.2 °F - 39.2 °F 51% 30.17 in 10.0 mi Calm Calm - N/A   Clear
7:55 PM 51.8 °F - 37.4 °F 58% 30.17 in 10.0 mi Calm Calm - N/A   Clear
8:15 PM 48.2 °F - 35.6 °F 62% 30.18 in 10.0 mi Calm Calm - N/A   Clear
8:35 PM 50.0 °F - 37.4 °F 62% 30.18 in 10.0 mi Calm Calm - N/A   Clear
9:15 PM 42.8 °F - 33.8 °F 70% 30.18 in 10.0 mi Calm Calm - N/A   Clear
9:35 PM 42.8 °F - 33.8 °F 70% 30.18 in 10.0 mi Calm Calm - N/A   Clear
9:55 PM 42.8 °F 41.1 °F 33.8 °F 70% 30.18 in 10.0 mi South 3.5 mph - N/A   Clear
10:15 PM 41.0 °F 39.0 °F 33.8 °F 76% 30.18 in 10.0 mi WSW 3.5 mph - N/A   Clear
10:35 PM 41.0 °F 38.0 °F 33.8 °F 76% 30.18 in 10.0 mi SW 4.6 mph - N/A   Clear
10:55 PM 41.0 °F 39.0 °F 33.8 °F 76% 30.18 in 10.0 mi WSW 3.5 mph - N/A   Clear
11:15 PM 41.0 °F 37.1 °F 33.8 °F 76% 30.18 in 10.0 mi WSW 5.8 mph - N/A   Clear
11:35 PM 41.0 °F 38.0 °F 32.0 °F 70% 30.18 in 10.0 mi SSW 4.6 mph - N/A   Clear
11:55 PM 37.4 °F - 32.0 °F 81% 30.18 in 10.0 mi Calm Calm - N/A   Clear